Location: Avenches
(46.8809°N, 7.0410°E)
Time: 02:50:56
(UTC+00:00)

Cosmos 962 Rocket - Pass Details

Date: 30 March 2020
Orbit: 951 x 999 km, 82.9° (Epoch: 06 June)

Event Time Altitude Azimuth Distance (km) Brightness Sun altitude
Rises 20:22:25 0° 354° (N) 3,678 8.1 -23.5°
Reaches altitude 10° 20:25:00 10° 358° (N) 2,720 7.3 -23.9°
Maximum altitude 20:31:08 58° 77° (ENE) 1,109 4.5 -24.7°
Enters shadow 20:31:48 55° 104° (ESE) 1,141 4.5 -24.8°
